Weather in Keperveyem

Russia / Chukotka Autonomous Okrug     67°50′30″N   166°08′47″E
temp.,
°C
wind,
m/s
gust,
m/s
humid.,
%
clouds,
%
prec.,
mm/h
press.,
hPa
HPBL,
m
23 april, fri
fri2300:00−12se2186100 0.0 10219
03:00−13se118578 0.0 10219
06:00−14sse228395 0.0 102120
09:00−6s237194 0.0 1020159
12:00−3ssw239192 0.1 1020406
15:00−2w119286 0.2 1019286
18:00−2n118689 0.3 1019263
21:00−5ne2294100 0.0 101817
24 april, sat
sat2400:00−8e229399 0.0 101813
03:00−11e2293100 0.0 101614
06:00−12ene2191100 0.0 101620
09:00−7ene118092 0.0 1014155
12:00−4ene117077 0.0 1013374
15:00−2ene127667 0.0 1012427
18:00−2ene1176100 0.0 1011318
21:00−6ese118899 0.0 101210
25 april, sun
sun2500:00−9ese2189100 0.0 101310
03:00−8ese1189100 0.0 101210
06:00−7e1189100 0.0 101223
09:00−5ne1178100 0.0 1011134
12:00−3nne1173100 0.0 1010287
15:00−2nnw1077100 0.0 1009341
18:00−2nnw1191100 0.2 1009212
21:00−4nne1198100 0.3 100910
26 april, mon
mon2600:00−5e1197100 0.8 100910
03:00−7e1197100 0.5 100810
06:00−6s0096100 0.9 100940
09:00−4wsw119197 0.6 1008237
12:00−2wsw129288 0.9 1008330
15:00−2wnw119394 0.2 1008268
18:00−1wnw119295 0.5 1008197
21:00−5se119482 0.1 101010
27 april, tue
tue2700:00−9se229185 0.1 101212
03:00−9sse228983 0.0 101318
06:00−11sse1194100 0.0 101511
09:00−7e0188100 0.1 1014157
12:00−4n0182100 0.1 1013341
15:00−3wnw1180100 0.0 1013419
18:00−2wsw1181100 0.1 1013332
21:00−9s11905 0.0 101510